[[{"header":{"parameterUnit":"m.s-1","parameterCategory":1,"la1":30.2991,"la2":30.254,"lo1":-89.0895,"lo2":-89.0444,"dy":0.0017,"dx":0.0017,"nx":28,"ny":28,"refTime":"2024-02-21T03:00:00:Z","depth":0,"parameterNumber":2,"parameterNumberName":"U-component_of_WINDS"},"data":[0,0,0,0,0,0,0,0,0,0,0,0,0,0,0,0,0,0,0,0,0,0,0,0,0,0,0,0,0,0,0,0,0,0,0,0,0,0,0,0,0,0,0,0,0,0,0,0,0,0,0,0,0,0,0,0,0,0,1.3439,1.3439,0,1.3447,1.3447,1.3447,1.3394,1.3393,1.3391,1.339,1.3399,1.3401,1.3402,0,0,0,0,0,0,0,0,0,0,0,0,0,1.3376,1.3378,1.3439,1.3439,1.3439,1.3447,1.3447,1.3447,1.3394,1.3393,1.3391,1.3389,1.3399,1.3401,1.3403,0,0,0,0,0,0,0,0,0,0,0,0,0,1.3396,1.3378,1.3439,1.3413,1.3411,1.3447,1.3447,1.3447,1.3395,1.3393,1.339,1.3388,1.3398,1.34,1.3403,1.3464,0,0,1.3411,1.3412,0,0,0,0,0,0,0,0,1.3395,1.3398,1.3417,1.3415,1.3413,1.3417,1.3429,1.3453,1.3395,1.3401,1.339,1.3387,1.3407,1.3409,1.3415,1.3464,1.3465,1.3411,1.3412,1.3413,1.3414,0,0,0,0,0,0,0,1.3394,1.3398,1.3442,1.3417,1.3415,1.3402,1.3402,1.3433,1.3417,1.34,1.3397,1.3398,1.3406,1.3413,1.3415,1.3465,1.3411,1.3413,1.3414,1.3415,1.3563,1.3565,0,0,0,0,0,0,1.3396,1.3397,1.3442,1.3442,1.3398,1.3405,1.3405,1.3418,1.3416,1.3414,1.34,1.3396,1.341,1.3412,1.3415,1.3486,1.3413,1.3416,1.3417,1.3561,1.3564,1.3566,0,0,0,0,0,0,1.3394,1.34,1.3441,1.3419,1.3423,1.3408,1.3423,1.342,1.3427,1.3416,1.3413,1.3411,1.3408,1.3412,1.3452,1.3485,1.3417,1.3419,1.3558,1.3561,1.3565,1.3627,0,0,0,0,0,0,1.3393,1.34,1.3423,1.3419,1.3424,1.3478,1.3425,1.3421,1.3431,1.3426,1.3425,1.3423,1.3407,1.3448,1.3454,1.3487,1.3421,1.3555,1.3559,1.3564,1.3622,1.3633,1.3642,0,0,0,0,0,1.3391,1.3441,1.3425,1.343,1.3453,1.348,1.3483,1.3463,1.3434,1.3457,1.345,1.3423,1.3481,1.3453,1.3459,1.3494,1.3552,1.3558,1.3563,1.3618,1.3631,1.3641,0,0,0,0,0,0,1.3449,1.344,1.3422,1.3472,1.3477,1.3471,1.3499,1.3477,1.3491,1.3485,1.3459,1.346,1.3504,1.3503,1.3472,1.3552,1.3512,1.3519,1.3551,1.3563,1.3572,1.3572,1.3423,0,0,0,0,0,1.3468,1.3491,1.3481,1.3526,1.353,1.3514,1.3526,1.351,1.3514,1.3516,1.3512,1.3517,1.3536,1.355,1.3567,1.3622,1.3621,1.3649,1.3658,1.3666,1.3672,1.3701,1.3713,1.3584,1.3584,1.3584,0,0,1.3506,1.3504,1.352,1.3538,1.354,1.3564,1.3517,1.3544,1.3562,1.352,1.3557,1.3555,1.3559,1.3607,1.3628,1.3607,1.3708,1.3673,1.368,1.3681,1.3707,1.372,1.373,1.3588,1.3587,1.3586,0,0,1.3589,1.359,1.3627,1.363,1.3634,1.3623,1.3632,1.3629,1.3626,1.3663,1.3632,1.3652,1.3686,1.369,1.3697,1.3781,1.3756,1.3787,1.3837,1.3865,1.3875,1.3884,1.3913,1.3924,1.3793,1.3793,1.3794,0,1.3637,1.3672,1.3649,1.3679,1.3687,1.365,1.3688,1.3692,1.3701,1.3708,1.3685,1.3726,1.3726,1.3774,1.3794,1.3801,1.381,1.3787,1.3876,1.3884,1.3892,1.392,1.3931,1.3797,1.3797,1.3796,1.3796,0,1.373,1.3755,1.3784,1.3794,1.3805,1.3839,1.3821,1.3836,1.3819,1.3811,1.3848,1.3848,1.3863,1.3874,1.3858,1.3919,1.3906,1.388,1.3839,1.3908,1.3934,1.3944,1.3802,1.3801,1.38,1.3799,0,0,1.3849,1.3845,1.3857,1.386,1.3861,1.388,1.3911,1.3927,1.3939,1.3947,1.3973,1.4002,1.3977,1.3985,1.3969,1.3993,1.4059,1.3964,1.3963,1.3981,1.4125,1.4144,1.4157,1.4043,1.4044,1.4046,1.4124,0,1.3929,1.3983,1.3963,1.4018,1.404,1.4005,1.4032,1.4036,1.4029,1.4047,1.4039,1.406,1.4026,1.4031,1.4053,1.4046,1.4087,1.404,1.4066,1.4067,1.4065,1.417,1.4191,1.4265,1.4134,1.4136,1.4137,0,1.403,1.4041,1.4098,1.4094,1.4103,1.4128,1.414,1.4157,1.4161,1.4154,1.4162,1.4141,1.4171,1.413,1.4172,1.414,1.4149,1.4147,1.415,1.4151,1.4106,1.4174,1.4288,1.4299,1.4153,1.4152,1.415,0,1.411,1.414,1.4177,1.4181,1.4178,1.4197,1.4196,1.4197,1.4207,1.4218,1.4224,1.4239,1.4246,1.4258,1.4241,1.4213,1.4284,1.4242,1.4279,1.428,1.4295,1.4294,1.4412,1.4303,1.4302,1.4302,1.4302,0,1.4201,1.4237,1.4213,1.4236,1.4275,1.4252,1.4291,1.4287,1.4288,1.431,1.4281,1.4302,1.4278,1.4297,1.4284,1.4319,1.4323,1.4318,1.4314,1.4321,1.4321,1.4326,1.432,1.4305,1.4304,1.4304,1.4303,0,1.4298,1.4283,1.4321,1.4315,1.4315,1.4344,1.4338,1.4359,1.435,1.4378,1.4383,1.4368,1.4389,1.4373,1.4393,1.4384,1.4431,1.442,1.443,1.4426,1.4464,1.446,1.4588,1.4604,1.4485,1.4486,1.4487,0,1.4356,1.4383,1.438,1.4392,1.4393,1.4413,1.4423,1.4402,1.4413,1.4419,1.4439,1.4457,1.447,1.4504,1.4495,1.451,1.4499,1.4543,1.4501,1.4506,1.4498,1.4497,1.4499,1.4551,1.4552,1.4554,1.4554,0,1.4462,1.4453,1.4468,1.4481,1.4494,1.4503,1.451,1.4522,1.45,1.4515,1.4535,1.4545,1.4565,1.4582,1.4594,1.4594,1.4571,1.4568,1.4577,1.4583,1.4587,1.4585,1.4452,1.4565,1.4564,1.4563,1.4562,1.4562,1.454,1.4562,1.4563,1.4581,1.4584,1.4591,1.461,1.4603,1.4619,1.4634,1.462,1.4644,1.4646,1.466,1.4662,1.4681,1.4662,1.4676,1.4679,1.4683,1.4688,1.4585,1.4683,1.4683,1.4682,1.4682,1.4682,0,1.4643,1.4642,1.4659,1.4669,1.4683,1.466,1.4666,1.468,1.4701,1.4705,1.4718,1.4741,1.4758,1.4751,1.4765,1.4782,1.4771,1.4786,1.4784,1.4785,1.4703,1.4694,1.4794,1.4794,1.4794,1.4794,1.4794,1.4794,1.4699,1.4734,1.4725,1.4762,1.476,1.4783,1.4789,1.4795,1.4798,1.4824,1.4838,1.4833,1.4832,1.4847,1.4861,1.4859,1.4865,1.4884,1.4877,1.4802,1.479,1.478,1.477,1.4886,1.4886,1.4957,1.4957,1.4958]},{"header":{"parameterUnit":"m.s-1","parameterCategory":1,"la1":30.2991,"la2":30.254,"lo1":-89.0895,"lo2":-89.0444,"dy":0.0017,"dx":0.0017,"nx":28,"ny":28,"refTime":"2024-02-21T03:00:00:Z","depth":0,"parameterNumber":3,"parameterNumberName":"V-component_of_WINDS"},"data":[0,0,0,0,0,0,0,0,0,0,0,0,0,0,0,0,0,0,0,0,0,0,0,0,0,0,0,0,0,0,0,0,0,0,0,0,0,0,0,0,0,0,0,0,0,0,0,0,0,0,0,0,0,0,0,0,0,0,2.7539,2.7539,0,2.7523,2.7522,2.7522,2.7471,2.7469,2.7468,2.7467,2.7452,2.7453,2.7453,0,0,0,0,0,0,0,0,0,0,0,0,0,2.7526,2.7527,2.7539,2.7539,2.7538,2.7523,2.7522,2.7522,2.7471,2.7469,2.7468,2.7467,2.7452,2.7452,2.7453,0,0,0,0,0,0,0,0,0,0,0,0,0,2.7523,2.7527,2.7539,2.7511,2.7508,2.7523,2.7522,2.7522,2.7471,2.7469,2.7468,2.7466,2.7451,2.7452,2.7453,2.7494,0,0,2.7456,2.7457,0,0,0,0,0,0,0,0,2.7523,2.7524,2.7515,2.7513,2.751,2.7497,2.7512,2.7513,2.7472,2.7485,2.7467,2.7465,2.7468,2.7468,2.7469,2.7493,2.7493,2.7456,2.7457,2.7458,2.7458,0,0,0,0,0,0,0,2.7524,2.7524,2.7532,2.7515,2.7512,2.7499,2.7497,2.7512,2.7487,2.7484,2.748,2.7479,2.7467,2.7468,2.7468,2.7492,2.7456,2.7457,2.7458,2.7458,2.7549,2.7551,0,0,0,0,0,0,2.7528,2.7525,2.7533,2.7532,2.7512,2.7501,2.7498,2.7503,2.7486,2.7482,2.748,2.7476,2.7467,2.7467,2.7467,2.7513,2.7458,2.7458,2.7459,2.7547,2.755,2.7551,0,0,0,0,0,0,2.7528,2.7529,2.7534,2.7527,2.7527,2.7503,2.7508,2.7503,2.7504,2.7484,2.7479,2.7486,2.7466,2.7466,2.7487,2.7512,2.7459,2.746,2.7545,2.7548,2.7551,2.7605,0,0,0,0,0,0,2.7528,2.7529,2.7544,2.7528,2.7527,2.7554,2.751,2.7504,2.7506,2.7501,2.7488,2.7484,2.7464,2.7486,2.7488,2.7512,2.7461,2.7543,2.7546,2.755,2.7601,2.761,2.7617,0,0,0,0,0,2.7527,2.7561,2.7545,2.7546,2.7545,2.7555,2.7555,2.7531,2.7508,2.7523,2.751,2.7484,2.7509,2.7489,2.7491,2.7515,2.7541,2.7545,2.7549,2.7598,2.7608,2.7617,0,0,0,0,0,0,2.7581,2.7558,2.7541,2.757,2.7565,2.7547,2.7565,2.7543,2.7545,2.754,2.7511,2.7508,2.7534,2.7527,2.7505,2.7554,2.7521,2.7526,2.7557,2.7567,2.7574,2.7575,2.7461,0,0,0,0,0,2.7596,2.7606,2.7585,2.7613,2.7612,2.7589,2.7592,2.7574,2.7568,2.7566,2.7554,2.755,2.7556,2.7561,2.7566,2.76,2.7597,2.7618,2.7626,2.7632,2.7637,2.7654,2.7663,2.7565,2.7565,2.7565,0,0,2.7628,2.7616,2.7624,2.7624,2.7618,2.7629,2.7587,2.7601,2.7608,2.7568,2.7587,2.7579,2.7572,2.76,2.7612,2.7595,2.7663,2.7638,2.7643,2.7644,2.7659,2.7668,2.7676,2.7568,2.7567,2.7567,0,0,2.769,2.7683,2.7705,2.77,2.7691,2.7676,2.7681,2.7666,2.7659,2.7678,2.7648,2.7657,2.7669,2.7665,2.7665,2.7726,2.7703,2.7729,2.7769,2.7786,2.7794,2.78,2.7821,2.783,2.7733,2.7733,2.7733,0,2.7731,2.7745,2.7719,2.7734,2.7734,2.7698,2.772,2.7717,2.7711,2.7712,2.7693,2.7707,2.77,2.7726,2.7741,2.7742,2.7747,2.7729,2.7795,2.7801,2.7807,2.7827,2.7835,2.7736,2.7736,2.7736,2.7735,0,2.7795,2.7806,2.7824,2.7818,2.7821,2.784,2.7817,2.7823,2.7805,2.7792,2.7811,2.7802,2.7804,2.7809,2.7792,2.7833,2.7822,2.78,2.7766,2.782,2.7838,2.7845,2.7741,2.774,2.7739,2.7738,0,0,2.789,2.787,2.7877,2.7873,2.7861,2.7869,2.7887,2.7888,2.7893,2.7891,2.7904,2.7915,2.7894,2.7894,2.7876,2.7891,2.7939,2.7866,2.7865,2.7879,2.7984,2.8,2.8009,2.7924,2.7926,2.7927,2.7984,0,2.7949,2.7976,2.7953,2.7984,2.7994,2.796,2.7974,2.7969,2.7957,2.7964,2.7951,2.7959,2.7931,2.793,2.7944,2.7931,2.796,2.7926,2.7936,2.7937,2.7938,2.8019,2.8036,2.8091,2.7991,2.7992,2.7993,0,2.8021,2.802,2.8053,2.8038,2.8041,2.8055,2.8054,2.8061,2.8054,2.8045,2.8044,2.8022,2.8038,2.8006,2.8027,2.8005,2.8008,2.8002,2.8004,2.8003,2.7967,2.802,2.8108,2.8116,2.8004,2.8003,2.8002,0,2.8086,2.8094,2.8114,2.8112,2.8096,2.8106,2.81,2.8092,2.8094,2.8094,2.8095,2.8097,2.8098,2.81,2.808,2.8058,2.8104,2.807,2.8096,2.8096,2.8106,2.8106,2.8195,2.811,2.811,2.811,2.8109,0,2.8153,2.8174,2.8143,2.8155,2.8178,2.8151,2.8174,2.8165,2.8158,2.8168,2.8139,2.8149,2.8121,2.8129,2.8113,2.8133,2.8134,2.8126,2.8122,2.8128,2.8129,2.8129,2.8125,2.8112,2.8111,2.8111,2.811,0,2.8229,2.8209,2.8229,2.8212,2.8208,2.8225,2.8211,2.8222,2.8208,2.8222,2.8223,2.8202,2.8209,2.8189,2.8193,2.8183,2.8211,2.8201,2.8213,2.821,2.8237,2.8234,2.8329,2.8339,2.8248,2.8249,2.825,0,2.8273,2.8288,2.8273,2.8277,2.8272,2.828,2.8282,2.8257,2.826,2.8254,2.8266,2.827,2.8273,2.8286,2.8271,2.8274,2.8263,2.8296,2.8264,2.827,2.8263,2.8262,2.8263,2.8303,2.8304,2.8305,2.8306,0,2.8353,2.8342,2.8346,2.8346,2.8349,2.8348,2.8346,2.8351,2.8324,2.833,2.8336,2.8338,2.8342,2.8347,2.8347,2.8341,2.8319,2.8316,2.8322,2.8329,2.8335,2.8331,2.8231,2.8314,2.8313,2.8312,2.8312,2.8312,2.8413,2.8425,2.8416,2.8421,2.8416,2.8414,2.8423,2.8411,2.8416,2.8417,2.8402,2.8412,2.8405,2.8402,2.8398,2.8406,2.8391,2.84,2.8402,2.8404,2.8408,2.8334,2.8406,2.8406,2.8406,2.8405,2.8405,0,2.8491,2.8483,2.8488,2.8485,2.8489,2.8467,2.8463,2.8468,2.8477,2.8472,2.8475,2.8482,2.8487,2.8473,2.8476,2.8484,2.8474,2.8486,2.8485,2.8483,2.8422,2.8416,2.8494,2.8494,2.8494,2.8494,2.8494,2.8494,2.8531,2.8549,2.8538,2.8554,2.8546,2.8555,2.8554,2.8552,2.8548,2.8558,2.8561,2.8552,2.8543,2.8545,2.8549,2.8544,2.8546,2.8562,2.8554,2.8497,2.8488,2.848,2.8474,2.8562,2.8563,2.8614,2.8615,2.8615]}]]